Tracking 30058 objects as of 9-Dec-2024
HD Live streaming from Space Station
objects crossing your sky now

COSMOS 249 DEB

Track COSMOS 249 DEB now!
10-day predictions


NORAD ID: 14430
Int'l Code: 1968-091CV
Perigee: 744.3 km
Apogee: 1,802.2 km
Inclination: 62.2 °
Period: 110.9 minutes
Semi major axis: 7644 km
RCS: 0.0133 m2 (small)
Launch date: October 20, 1968
Source: Commonwealth of Independent States (former USSR) (CIS)
Launch site: TYURATAM MISSILE AND SPACE COMPLEX (TTMTR)

Note: This is SATELLITE DEBRIS
Your satellite tracking list
Your tracking list is empty




NASA's NSSDC Master Catalog

Two Line Element Set (TLE):
1 14430U 68091CV  24343.63204116  .00004807  00000-0  53351-2 0  9993
2 14430  62.2407 214.6222 0691939  53.7438 337.2229 12.98974076 28620
Source of the keplerian elements: AFSPC